�������l�o���
Date,Time,MP-1(��Sv/h),MP-2(��Sv/h),MP-3(��Sv/h),MP-4(��Sv/h),MP-5(��Sv/h),MP-6(��Sv/h),MP-7(��Sv/h),MP-8(��Sv/h),����,����(m/s),���J
2015/02/12,00:00,1.913,3.505,3.707,3.402,3.613,1.113,1.827,2.110,�k��,3.1,��
2015/02/12,00:10,1.908,3.503,3.710,3.405,3.610,1.113,1.825,2.112,�k��,4.3,��
2015/02/12,00:20,1.912,3.502,3.710,3.402,3.612,1.112,1.827,2.110,�k��,4.9,��
2015/02/12,00:30,1.908,3.502,3.708,3.402,3.615,1.115,1.827,2.110,���k��,4.7,��
2015/02/12,00:40,1.912,3.503,3.708,3.407,3.615,1.113,1.828,2.112,�k��,2.9,��
2015/02/12,00:50,1.917,3.502,3.710,3.405,3.613,1.115,1.830,2.110,��,3.3,��
2015/02/12,01:00,1.918,3.502,3.710,3.410,3.618,1.117,1.828,2.110,��,3.9,��
2015/02/12,01:10,1.920,3.502,3.713,3.407,3.617,1.115,1.830,2.112,��,4.3,��
2015/02/12,01:20,1.918,3.505,3.713,3.403,3.613,1.115,1.830,2.110,��쐼,3.0,��
2015/02/12,01:30,1.917,3.505,3.717,3.407,3.610,1.115,1.827,2.110,�쐼,2.6,��
2015/02/12,01:40,1.917,3.505,3.713,3.408,3.612,1.115,1.830,2.108,��,3.3,��
2015/02/12,01:50,1.915,3.505,3.715,3.407,3.615,1.118,1.828,2.108,��쐼,2.5,��
2015/02/12,02:00,1.915,3.502,3.717,3.407,3.615,1.117,1.832,2.112,��,2.3,��
2015/02/12,02:10,1.915,3.503,3.713,3.407,3.610,1.117,1.830,2.112,��쓌,1.9,��
2015/02/12,02:20,1.917,3.502,3.717,3.408,3.612,1.115,1.830,2.110,��,2.4,��
2015/02/12,02:30,1.917,3.505,3.713,3.407,3.613,1.115,1.830,2.110,��,2.5,��
2015/02/12,02:40,1.915,3.503,3.713,3.408,3.615,1.120,1.830,2.110,��,2.6,��
2015/02/12,02:50,1.915,3.508,3.715,3.405,3.608,1.117,1.828,2.108,��쐼,2.3,��
2015/02/12,03:00,1.917,3.503,3.713,3.405,3.613,1.118,1.832,2.107,��,2.9,��
2015/02/12,03:10,1.917,3.497,3.718,3.405,3.612,1.115,1.830,2.110,��,2.8,��
2015/02/12,03:20,1.922,3.502,3.713,3.405,3.615,1.117,1.830,2.110,��쓌,4.0,��
2015/02/12,03:30,1.917,3.500,3.713,3.405,3.615,1.115,1.832,2.108,��,3.5,��
2015/02/12,03:40,1.917,3.503,3.712,3.405,3.613,1.113,1.828,2.110,��,2.8,��
2015/02/12,03:50,1.917,3.502,3.718,3.407,3.612,1.112,1.828,2.110,��쐼,2.6,��
2015/02/12,04:00,1.920,3.497,3.717,3.402,3.615,1.118,1.827,2.112,��쐼,2.7,��
2015/02/12,04:10,1.920,3.502,3.713,3.407,3.612,1.118,1.828,2.113,��쐼,2.0,��
2015/02/12,04:20,1.917,3.503,3.710,3.402,3.608,1.117,1.828,2.113,��쐼,1.5,��
2015/02/12,04:30,1.917,3.505,3.710,3.400,3.613,1.117,1.828,2.113,�쐼,0.9,��
2015/02/12,04:40,1.913,3.505,3.708,3.400,3.612,1.115,1.830,2.110,��쐼,1.0,��
2015/02/12,04:50,1.917,3.497,3.708,3.405,3.612,1.115,1.828,2.110,�k��,0.7,��
2015/02/12,05:00,1.915,3.498,3.710,3.403,3.610,1.115,1.832,2.110,�k��,1.7,��
2015/02/12,05:10,1.917,3.505,3.710,3.402,3.610,1.113,1.828,2.108,�k��,2.9,��
2015/02/12,05:20,1.915,3.503,3.712,3.400,3.610,1.113,1.827,2.108,�k�k��,2.4,��
2015/02/12,05:30,1.915,3.503,3.708,3.400,3.603,1.110,1.827,2.108,�k�k��,2.8,��
2015/02/12,05:40,1.913,3.500,3.707,3.407,3.605,1.113,1.827,2.110,�k��,2.8,��
2015/02/12,05:50,1.915,3.502,3.710,3.397,3.607,1.113,1.832,2.110,�k��,2.6,��
2015/02/12,06:00,1.915,3.503,3.708,3.402,3.608,1.110,1.827,2.112,���k��,3.6,��
2015/02/12,06:10,1.913,3.498,3.708,3.403,3.610,1.108,1.827,2.107,���k��,4.5,��
2015/02/12,06:20,1.912,3.497,3.710,3.400,3.613,1.107,1.828,2.110,�k��,4.6,��
2015/02/12,06:30,1.915,3.503,3.707,3.402,3.605,1.107,1.827,2.108,�k��,6.4,��
2015/02/12,06:40,1.913,3.502,3.707,3.405,3.598,1.105,1.827,2.107,�k�k��,6.0,��
2015/02/12,06:50,1.910,3.500,3.708,3.403,3.597,1.103,1.828,2.105,�k�k��,5.8,��
2015/02/12,07:00,1.912,3.498,3.710,3.408,3.600,1.103,1.830,2.108,�k,5.6,��
2015/02/12,07:10,1.913,3.502,3.712,3.403,3.598,1.098,1.830,2.105,�k,5.8,��
2015/02/12,07:20,1.915,3.502,3.710,3.407,3.602,1.095,1.827,2.108,�k,5.3,��
2015/02/12,07:30,1.913,3.498,3.710,3.402,3.603,1.092,1.828,2.107,�k�k��,5.5,��
2015/02/12,07:40,1.915,3.503,3.712,3.405,3.608,1.092,1.827,2.110,�k�k��,5.7,��
2015/02/12,07:50,1.920,3.503,3.715,3.407,3.603,1.090,1.828,2.108,�k�k��,5.6,��
2015/02/12,08:00,1.915,3.500,3.712,3.403,3.612,1.090,1.828,2.108,�k�k��,5.3,��
2015/02/12,08:10,1.913,3.505,3.715,3.405,3.617,1.090,1.828,2.107,�k�k��,4.9,��
2015/02/12,08:20,1.917,3.505,3.717,3.408,3.613,1.088,1.830,2.103,�k�k��,4.2,��
2015/02/12,08:30,1.920,3.507,3.718,3.408,3.610,1.090,1.830,2.105,�k�k��,4.4,��
2015/02/12,08:40,1.922,3.507,3.718,3.410,3.612,1.090,1.830,2.110,�k�k��,3.8,��
2015/02/12,08:50,1.925,3.508,3.718,3.410,3.612,1.090,1.830,2.110,�k�k��,2.9,��
2015/02/12,09:00,1.922,3.507,3.723,3.412,3.615,1.092,1.832,2.110,�k,3.5,��
2015/02/12,09:10,1.915,3.512,3.727,3.408,3.622,1.090,1.827,2.107,�k�k��,3.8,��
2015/02/12,09:20,1.918,3.512,3.725,3.405,3.622,1.090,1.822,2.108,�k,3.2,��
2015/02/12,09:30,1.917,3.512,3.723,3.405,3.623,1.090,1.825,2.107,�k�k��,4.0,��
2015/02/12,09:40,1.913,3.515,3.727,3.408,3.625,1.092,1.823,2.105,�k�k��,3.8,��
2015/02/12,09:50,1.915,3.518,3.728,3.412,3.627,1.088,1.822,2.108,�k�k��,4.2,��
2015/02/12,10:00,1.918,3.522,3.727,3.413,3.627,-,1.822,2.105,�k�k��,4.9,��
2015/02/12,10:10,1.922,3.520,3.732,3.418,3.632,-,1.822,2.108,�k�k��,4.3,��
2015/02/12,10:20,1.917,3.522,3.733,3.413,3.628,-,1.822,2.107,�k�k��,4.4,��
2015/02/12,10:30,1.918,3.523,3.732,3.415,3.633,-,1.820,2.105,�k�k��,4.6,��
2015/02/12,10:40,1.922,3.518,3.733,3.415,3.630,1.093,1.818,2.103,�k�k��,4.1,��
2015/02/12,10:50,1.922,3.523,3.737,3.417,3.630,1.093,1.818,2.105,�k�k��,4.3,��
2015/02/12,11:00,1.922,3.523,3.733,3.413,3.633,1.095,1.818,2.105,�k�k��,4.2,��
2015/02/12,11:10,1.920,3.527,3.738,3.415,3.637,1.097,1.828,2.107,�k�k��,4.4,��
2015/02/12,11:20,1.923,3.523,3.742,3.417,3.635,1.095,1.832,2.105,�k�k��,4.2,��
2015/02/12,11:30,1.922,3.523,3.742,3.420,3.637,1.095,1.833,2.103,�k�k��,4.4,��
2015/02/12,11:40,1.923,3.528,3.740,3.423,3.638,1.095,1.837,2.107,�k��,4.5,��
2015/02/12,11:50,1.922,3.527,3.742,3.418,3.637,1.095,1.835,2.108,�k��,4.7,��
2015/02/12,12:00,1.925,3.528,3.745,3.418,3.642,1.095,1.835,2.108,�k��,4.4,��
2015/02/12,12:10,1.925,3.528,3.748,3.422,3.642,1.097,1.835,2.108,�k��,3.9,��
2015/02/12,12:20,1.923,3.530,3.750,3.422,3.643,1.095,1.833,2.107,�k�k��,4.2,��
2015/02/12,12:30,1.928,3.530,3.748,3.422,3.643,1.097,1.835,2.110,�k��,3.9,��
2015/02/12,12:40,1.927,3.528,3.745,3.422,3.643,1.097,1.835,2.112,�k�k��,4.7,��
2015/02/12,12:50,1.925,3.528,3.745,3.422,3.640,1.095,1.833,2.112,�k��,5.0,��
2015/02/12,13:00,1.927,3.527,3.750,3.423,3.642,1.097,1.833,2.110,�k�k��,5.0,��
2015/02/12,13:10,1.925,3.530,3.755,3.423,3.645,1.097,1.832,2.108,�k��,5.5,��
2015/02/12,13:20,1.927,3.532,3.752,3.423,3.648,1.098,1.835,2.110,�k��,4.6,��
2015/02/12,13:30,1.923,3.530,3.747,3.423,3.648,1.102,1.837,2.107,�k�k��,4.9,��
2015/02/12,13:40,1.927,3.532,3.745,3.423,3.647,1.100,1.837,2.110,�k��,3.9,��
2015/02/12,13:50,1.925,3.533,-,3.422,3.648,1.102,1.838,2.112,�k��,3.6,��
2015/02/12,14:00,1.928,3.533,-,3.420,3.647,1.105,1.833,2.108,�k�k��,3.4,��
2015/02/12,14:10,1.930,3.535,-,3.428,3.647,1.107,1.835,2.110,�k��,4.0,��
2015/02/12,14:20,1.928,3.533,-,3.428,3.643,1.103,1.840,2.110,���k��,3.7,��
2015/02/12,14:30,1.928,3.528,-,3.425,3.648,1.107,1.837,2.110,���k��,3.5,��
2015/02/12,14:40,1.930,3.532,-,3.423,3.655,1.112,1.837,2.112,���k��,3.4,��
2015/02/12,14:50,1.928,3.535,-,3.430,3.652,1.110,1.838,2.108,�k��,3.0,��
2015/02/12,15:00,1.928,3.535,-,3.427,3.648,1.112,1.840,2.110,���k��,2.6,��
2015/02/12,15:10,1.927,3.537,-,3.428,3.650,1.112,1.838,2.108,�k��,2.7,��
2015/02/12,15:20,1.930,3.538,-,3.427,3.648,1.113,1.840,2.112,�k��,2.6,��
2015/02/12,15:30,1.930,3.540,-,3.427,3.648,1.113,1.837,2.113,�k�k��,2.8,��
2015/02/12,15:40,1.928,3.538,-,3.428,3.650,1.113,1.840,2.108,�k�k��,2.7,��
2015/02/12,15:50,1.927,3.535,3.753,3.427,3.652,1.117,1.840,2.107,�k�k��,2.4,��
2015/02/12,16:00,1.928,3.533,3.760,3.427,3.648,1.117,1.840,2.110,�k�k��,2.0,��
2015/02/12,16:10,1.932,3.533,3.770,3.425,3.643,1.117,1.837,2.108,�k,2.2,��
2015/02/12,16:20,1.927,3.533,3.767,3.427,3.645,1.115,1.838,2.110,�k,1.6,��
2015/02/12,16:30,1.927,3.532,3.767,3.425,3.647,1.118,1.838,2.107,�k,1.4,��
2015/02/12,16:40,1.930,3.530,3.768,3.418,3.652,1.120,1.837,2.108,�k��,1.0,��
2015/02/12,16:50,1.928,3.533,3.765,3.423,3.647,1.117,1.838,2.110,�k�k��,0.6,��
2015/02/12,17:00,1.927,3.530,3.767,3.420,3.642,1.115,1.838,2.108,-,CALM,��
2015/02/12,17:10,1.928,3.530,3.763,3.422,3.645,1.115,1.838,2.110,-,CALM,��
2015/02/12,17:20,1.928,3.530,3.762,3.415,3.645,1.118,1.835,2.110,-,CALM,��
2015/02/12,17:30,1.928,3.528,3.758,3.420,3.642,1.117,1.835,2.110,-,CALM,��
2015/02/12,17:40,1.928,3.527,3.757,3.415,3.640,1.117,1.835,2.108,-,CALM,��
2015/02/12,17:50,1.927,3.527,3.755,3.415,3.640,1.118,1.833,2.107,-,CALM,��
2015/02/12,18:00,1.927,3.528,3.757,3.417,3.638,1.120,1.835,2.108,-,CALM,��
2015/02/12,18:10,1.927,3.530,3.758,3.417,3.640,1.118,1.835,2.108,-,CALM,��
2015/02/12,18:20,1.923,3.528,3.760,3.417,3.645,1.120,1.835,2.108,-,CALM,��
2015/02/12,18:30,1.925,3.525,3.762,3.413,3.642,1.118,1.837,2.108,-,CALM,��
2015/02/12,18:40,1.927,3.525,3.758,3.412,3.637,1.117,1.835,2.110,-,CALM,��
2015/02/12,18:50,1.923,3.523,3.762,3.412,3.640,1.117,1.837,2.110,-,CALM,��
2015/02/12,19:00,1.923,3.525,3.760,3.410,3.642,1.118,1.837,2.107,���k��,0.5,��
2015/02/12,19:10,1.925,3.523,3.758,3.412,3.640,1.113,1.833,2.108,��,0.7,��
2015/02/12,19:20,1.922,3.527,3.758,3.410,3.647,1.117,1.833,2.108,���k��,0.8,��
2015/02/12,19:30,1.923,3.530,3.758,3.410,3.638,1.115,1.835,2.110,�k�k��,1.1,��
2015/02/12,19:40,1.923,3.525,3.757,3.412,3.642,1.117,1.835,2.108,�k�k��,1.3,��
2015/02/12,19:50,1.923,3.530,3.758,3.413,3.640,1.115,1.833,2.110,�k�k��,1.1,��
2015/02/12,20:00,1.920,3.525,3.757,3.412,3.640,1.115,1.835,2.108,�k�k��,1.0,��
2015/02/12,20:10,1.923,3.523,3.757,3.413,3.635,1.115,1.833,2.110,�k��,1.0,��
2015/02/12,20:20,1.922,3.525,3.755,3.412,3.635,1.117,1.833,2.113,�k�k��,0.7,��
2015/02/12,20:30,1.922,3.525,3.755,3.410,3.640,1.117,1.833,2.110,�k�k��,0.9,��
2015/02/12,20:40,1.922,3.523,3.760,3.415,3.640,1.117,1.833,2.112,�k�k��,0.9,��
2015/02/12,20:50,1.922,3.528,3.760,3.412,3.640,1.120,1.833,2.110,�k,0.8,��
2015/02/12,21:00,1.923,3.523,3.760,3.410,3.640,1.118,1.833,2.105,�k,1.5,��
2015/02/12,21:10,1.922,3.523,3.757,3.412,3.638,1.118,1.832,2.108,�k,2.0,��
2015/02/12,21:20,1.925,3.525,3.753,3.415,3.635,1.118,1.832,2.108,�k,2.4,��
2015/02/12,21:30,1.918,3.523,3.758,3.410,3.638,1.115,1.832,2.107,�k,1.9,��
2015/02/12,21:40,1.920,3.525,3.760,3.413,3.642,1.115,1.833,2.107,�k�k��,1.7,��
2015/02/12,21:50,1.917,3.523,3.757,3.410,3.640,1.118,1.833,2.110,�k�k��,1.6,��
2015/02/12,22:00,1.920,3.522,3.755,3.410,3.638,1.117,1.835,2.108,�k�k��,1.5,��
2015/02/12,22:10,1.922,3.522,3.755,3.412,3.640,1.115,1.832,2.110,�k�k��,1.9,��
2015/02/12,22:20,1.918,3.523,3.757,3.413,3.642,1.117,1.832,2.110,�k�k��,2.3,��
2015/02/12,22:30,1.922,3.523,3.755,3.417,3.640,1.115,1.833,2.108,�k�k��,2.2,��
2015/02/12,22:40,1.922,3.525,3.753,3.413,3.635,1.118,1.832,2.110,�k�k��,2.5,��
2015/02/12,22:50,1.920,3.523,3.757,3.417,3.640,1.118,1.833,2.110,�k�k��,2.1,��
2015/02/12,23:00,1.922,3.527,3.757,3.418,3.635,1.117,1.832,2.107,�k�k��,2.6,��
2015/02/12,23:10,1.923,3.527,3.758,3.412,3.632,1.120,1.833,2.105,�k��,2.3,��
2015/02/12,23:20,1.918,3.525,3.755,3.412,3.633,1.118,1.833,2.107,�k�k��,2.3,��
2015/02/12,23:30,1.920,3.523,3.758,3.412,3.630,1.117,1.833,2.107,�k��,2.2,��
2015/02/12,23:40,1.922,3.520,3.760,3.412,3.633,1.117,1.832,2.108,�k��,2.1,��
2015/02/12,23:50,1.918,3.523,3.755,3.413,3.637,1.117,1.833,2.105,�k�k��,1.2,��
